Newport, RI

12:24 AM EST on November 20, 2019 (GMT -0500)
Newport State

Weather History for KUUU - October, 2019

Change the Weather History Date:

Monday, October 21, 2019

  Actual Average Record
Temperature  
Mean Temperature 58 °F -  
Max Temperature 64 °F 60 °F 72 °F (2015)
Min Temperature 50 °F 43 °F 29 °F (1972)
Degree Days  
Heating Degree Days 7    
Growing Degree Days 8 (Base 50)    
Moisture  
Dew Point 48 °F    
Average Humidity 77    
Maximum Humidity 90    
Minimum Humidity 50    
Precipitation  
Precipitation 0.04 in - - ()
Sea Level Pressure  
Sea Level Pressure 30.05 in    
Wind  
Wind Speed 9 mph ()    
Max Wind Speed 18 mph    
Max Gust Speed 24 mph    
Visibility 10.0 miles    
Events Rain    
Averages and records for this station are not official NWS values.
T = Trace of Precipitation, MM = Missing Value Source: Averaged Metar Reports

Daily Weather History Graph

Daily Weather History Graph

Search for Another Location

Airport or City:

Astronomy

Oct. 21, 2019 Rise Set
Actual Time 7:03 AM EDT 5:55 PM EDT
Civil Twilight 6:35 AM EDT 6:23 PM EDT
Nautical Twilight 6:03 AM EDT 6:55 PM EDT
Astronomical Twilight 5:31 AM EDT 7:27 PM EDT
Moon No Moon Rise 2:21 PM EDT (10/21)
Length of Visible Light 11h 47m
Length of Day
10h 51m
Waning Gibbous, 48% of the Moon is Illuminated
Oct 21
Waning Gibbous
Oct 27
New
Nov 4
First Quarter
Nov 12
Full
Nov 19
Last Quarter

Hourly Weather History & Observations

Time (EDT) Temp. Dew Point Humidity Pressure Visibility Wind Dir Wind Speed Gust Speed Precip Events Conditions
12:03 AM 54.0 °F 48.9 °F 83% 30.02 in 10.0 mi ENE 8.1 mph - 0.01 in Rain Light Rain
12:53 AM 53.1 °F 48.9 °F 86% 30.01 in 10.0 mi NE 6.9 mph - 0.01 in Rain Light Rain
1:53 AM 53.1 °F 48.9 °F 86% 30.00 in 10.0 mi NE 8.1 mph - 0.03 in   Overcast
2:53 AM 53.1 °F 50.0 °F 89% 29.99 in 10.0 mi North 9.2 mph - N/A   Overcast
3:18 AM 53.1 °F 50.0 °F 89% 29.99 in 10.0 mi NNE 9.2 mph - 0.00 in Rain Light Rain
3:53 AM 53.1 °F 50.0 °F 89% 29.98 in 10.0 mi NNE 10.4 mph - 0.00 in   Overcast
4:53 AM 54.0 °F 50.0 °F 86% 29.99 in 10.0 mi NNE 9.2 mph - N/A   Overcast
5:53 AM 54.0 °F 51.1 °F 90% 30.01 in 10.0 mi NE 11.5 mph - N/A   Overcast
6:13 AM 54.0 °F 51.1 °F 90% 30.01 in 10.0 mi NNE 9.2 mph - N/A   Mostly Cloudy
6:24 AM 54.0 °F 51.1 °F 90% 30.01 in 10.0 mi North 9.2 mph - N/A   Overcast
6:53 AM 54.0 °F 51.1 °F 90% 30.02 in 10.0 mi North 11.5 mph - N/A   Overcast
7:19 AM 54.0 °F 51.1 °F 90% 30.03 in 10.0 mi NNE 10.4 mph - N/A   Mostly Cloudy
7:31 AM 55.0 °F 51.1 °F 86% 30.04 in 10.0 mi NNE 10.4 mph - N/A   Overcast
7:53 AM 55.0 °F 51.1 °F 86% 30.04 in 10.0 mi NNE 9.2 mph - N/A   Overcast
8:01 AM 55.0 °F 51.1 °F 86% 30.05 in 10.0 mi NNE 9.2 mph - N/A   Overcast
8:53 AM 55.9 °F 52.0 °F 87% 30.04 in 10.0 mi NNE 16.1 mph 21.9 mph N/A   Overcast
9:53 AM 57.9 °F 50.0 °F 75% 30.04 in 10.0 mi NNE 13.8 mph 19.6 mph N/A   Mostly Cloudy
10:07 AM 59.0 °F 50.0 °F 72% 30.03 in 10.0 mi NNE 17.3 mph 24.2 mph N/A   Scattered Clouds
10:53 AM 61.0 °F 50.0 °F 67% 30.04 in 10.0 mi NNE 15.0 mph 23.0 mph N/A   Mostly Cloudy
11:53 AM 63.0 °F 48.0 °F 58% 30.04 in 10.0 mi NNE 18.4 mph 21.9 mph N/A   Clear
12:53 PM 63.0 °F 46.0 °F 54% 30.06 in 10.0 mi NE 16.1 mph 24.2 mph N/A   Partly Cloudy
1:53 PM 64.0 °F 46.0 °F 52% 30.05 in 10.0 mi NE 13.8 mph 21.9 mph N/A   Clear
2:53 PM 64.0 °F 46.0 °F 52% 30.05 in 10.0 mi NE 13.8 mph 20.7 mph N/A   Clear
3:53 PM 63.0 °F 44.1 °F 50% 30.07 in 10.0 mi NE 10.4 mph - N/A   Clear
4:53 PM 61.0 °F 43.0 °F 52% 30.08 in 10.0 mi NNE 11.5 mph - N/A   Clear
5:53 PM 57.9 °F 43.0 °F 58% 30.11 in 10.0 mi NNE 5.8 mph - N/A   Clear
6:53 PM 54.0 °F 44.1 °F 69% 30.12 in 10.0 mi NNE 10.4 mph - N/A   Clear
7:53 PM 53.1 °F 45.0 °F 74% 30.14 in 10.0 mi NE 4.6 mph - N/A   Clear
8:53 PM 53.1 °F 46.9 °F 80% 30.14 in 10.0 mi NE 11.5 mph - N/A   Clear
9:53 PM 52.0 °F 46.9 °F 83% 30.14 in 10.0 mi NNE 10.4 mph - N/A   Clear
10:53 PM 52.0 °F 46.0 °F 80% 30.14 in 10.0 mi North 5.8 mph - N/A   Clear
11:53 PM 50.0 °F 46.0 °F 86% 30.12 in 10.0 mi NNW 4.6 mph - N/A   Clear